Regional Weather Roundup
Issued by NWS

Home | Current Version | Previous Version | Graphics & Text | Print | Product List | Glossary On
Versions: 1 2 3 4 5 6 7 8 9 10 11 12 13 14 15 16 17 18 19 20 21 22 23 24 25 26 27 28 29 30 31 32 33 34 35 36 37 38 39 40 41 42 43 44 45 46 47 48 49 50
000
ASUS43 KMKX 110710
RWRWI

WISCONSIN REGIONAL WEATHER ROUNDUP
NATIONAL WEATHER SERVICE MILWAUKEE/SULLIVAN WI
100 AM CST THU FEB 11 2016

NOTE: "FAIR" INDICATES FEW OR NO CLOUDS BELOW 12,000 FEET WITH NO
SIGNIFICANT WEATHER AND/OR OBSTRUCTIONS TO VISIBILITY.

WIZ001-002-006>008-014>016-023>028-110800-
NORTHWEST WISCONSIN

CITY           SKY/WX    TMP DP  RH WIND       PRES   REMARKS
SUPERIOR ARPT  CLOUDY    -3 -11  70 W6        30.30R WCI -16
ASHLAND        CLEAR     -5  -9  83 W6        30.24R WCI -18
HAYWARD        PTCLDY   -13 -19  75 CALM      30.22R
SIREN          CLOUDY    -7 -12  80 CALM      30.27R
CUMBERLAND     CLOUDY    -4 -13  65 W6        30.22R WCI -16
RICE LAKE      CLOUDY    -2  -8  76 W3        30.25S
CHETEK         CLOUDY    -6  -9  89 MISG      30.24R
LADYSMITH      PTCLDY    -9 -13  82 CALM      30.22R
EAU CLAIRE     CLOUDY     2  -6  69 W3        30.25R
MENOMONIE      CLOUDY     3  -7  65 W3        30.26R
NEW RICHMOND   CLOUDY     1  -6  73 NW6       30.26S WCI -11
OSCEOLA        CLOUDY    -1  -6  82 CALM      30.31R
$$

WIZ003>005-009-010-017-018-110800-
NORTH CENTRAL WISCONSIN

CITY           SKY/WX    TMP DP  RH WIND       PRES   REMARKS
MANITOWISH WTR FLURRIES   4  -1  82 NW7       30.10S WCI  -8
ARBOR VITAE    CLOUDY     1  -3  83 CALM      30.10S
WOODRUFF       CLOUDY     1  -3  83 CALM      30.10S
RHINELANDER    CLOUDY     2  -4  76 W6        30.09S WCI  -9
EAGLE RIVER    MOCLDY     3  -3  78 W6        30.08S WCI  -8
LAND O LAKES   LGT SNOW   6   2  83 NW3       30.08S
PHILLIPS       CLOUDY    -8 -12  84 SW3       30.15R
TOMAHAWK       CLEAR      0  -5  79 W5        30.13R WCI -10
MEDFORD        CLOUDY    -8 -11  86 W5        30.15R WCI -19
MERRILL        CLEAR      1  -4  76 NW3       30.15S
$$

WIZ029-030-035-036-043>047-110800-
CENTRAL WISCONSIN

CITY           SKY/WX    TMP DP  RH WIND       PRES   REMARKS
WAUSAU         CLEAR      1  -5  75 NW6       30.15R WCI -10
MOSINEE        CLEAR      0  -6  78 CALM      30.17R
MARSHFIELD     CLEAR     -3  -9  75 NW7       30.17R WCI -16
STEVENS POINT  MOCLDY     0  -6  76 W5        30.18S WCI -10
WAUPACA        PTCLDY     5  -4  65 NW3       30.20S
WAUTOMA        PTCLDY    -4 -10  75 CALM      30.22R
WISC RAPIDS    CLEAR     -2  -8  76 NW5       30.21S WCI -12
CAMP DOUGLAS   CLEAR     -3  -5  90 W8        30.22R WCI -18
$$

WIZ011>013-019>022-031-037>040-048>050-110800-
NORTHEAST WISCONSIN

CITY           SKY/WX    TMP DP  RH WIND       PRES   REMARKS
ANTIGO         CLEAR      0  -6  76 W6        30.10R WCI -11
SHAWANO        PTCLDY     5  -4  65 W3        30.17S
OCONTO         CLEAR      0  -6  74 W6        30.17R WCI -11
STURGEON BAY   CLEAR      3  -6  66 W6        30.15S WCI  -8
GREEN BAY      CLEAR     -2  -9  72 W6        30.18S WCI -14
MANITOWOC      CLEAR      4  -4  69 NW7       30.17S WCI  -8
APPLETON       CLEAR      3  -8  60 W7        30.16R WCI  -9
CLINTONVILLE   CLEAR      3  -6  66 W7        30.17S WCI  -9
OSHKOSH        CLEAR      2  -7  66 W6        30.19R WCI  -9
$$

WIZ032>034-041-042-053>061-110800-
SOUTHWEST WISCONSIN

CITY           SKY/WX    TMP DP  RH WIND       PRES   REMARKS
LA CROSSE      CLEAR      2  -5  72 N3        30.27R
SPARTA         PTCLDY    -5  -9  86 CALM      30.26R
VIROQUA        CLEAR      0  -6  76 NW3       30.20R
BOSCOBEL       CLOUDY     5  -3  69 CALM      30.26R
PRAIRIE DU CHI CLOUDY    10  -2  58 NW7       30.26R WCI  -1
PLATTEVILLE    CLOUDY     9   1  68 N7        30.20R WCI  -2
$$

WIZ056-057-062-063-064-067-068-110800-
SOUTH CENTRAL WISCONSIN

CITY           SKY/WX    TMP DP  RH WIND       PRES   REMARKS
REEDSBURG      CLEAR      4  -4  69 CALM      30.21S
BARABOO/DELLS  CLEAR      4  -5  67 NW5       30.20S WCI  -6
LONE ROCK      CLEAR      1  -4  79 CALM      30.25R
MINERAL POINT  CLOUDY     9   0  66 NW6       30.18R WCI  -1
MADISON        CLEAR      6  -4  63 NW6       30.19R WCI  -4
MIDDLETON      CLEAR      7  -2  69 NW3       30.20R
WATERTOWN      CLEAR      6  -2  70 NW6       30.18S WCI  -5
MONROE         CLOUDY     9   1  72 NW6       30.17R WCI  -1
JANESVILLE     CLEAR     10   1  67 NW5       30.19R WCI   2
$$

WIZ051-052-058>065-066-070>072-110800-
SOUTHEAST WISCONSIN

CITY           SKY/WX    TMP DP  RH WIND       PRES   REMARKS
MILWAUKEE      PTCLDY     8  -3  61 NW9       30.18R WCI  -5
WAUKESHA       CLEAR      3  -4  72 NW5       30.18R WCI  -6
MILWAUKEE/TIMM PTCLDY     7  -4  61 N7        30.19R WCI  -5
RACINE         CLEAR      8  -3  61 NW6       30.19R WCI  -2
BURLINGTON     CLEAR      6  -3  67 NW7       30.17S WCI  -6
KENOSHA        CLEAR      8  -2  63 NW8       30.16S WCI  -4
FOND DU LAC    CLEAR      4  -6  63 NW8       30.19R WCI  -9
SHEBOYGAN      CLEAR      5  -6  60 NW7       30.17S WCI  -7
WEST BEND      CLEAR      3  -4  72 CALM      30.17S
JUNEAU         CLEAR      4  -5  67 N8        30.19S WCI -10
$$

LSZ147-162-110800-
LAKE SUPERIOR

STATION/POSITION TIME  TEMP    WIND        PRES    WAVE
                       AIR SEA DIR/SP/G            HT/PER
                 (UTC) (F)     (DEG/KT/KT) (MB)    (FT/S)
DEVILS ISLAND    0600    9     350/ 17/ 20 1025.2R
PORT WING        0600    8     340/  7/ 13 1024.0S
SAXON HARBOR     0600   11                 1022.7
$$

LMZ867-665-643>646-110800-
LAKE MICHIGAN

STATION/POSITION TIME  TEMP    WIND        PRES    WAVE
                       AIR SEA DIR/SP/G            HT/PER
                 (UTC) (F)     (DEG/KT/KT) (MB)    (FT/S)
CHAMBERS ISLAND  0600    9     270/  5/ 16 1020.3S
ALGOMA LAKESHORE 0456          310/  4/  8   N/A
KEWAUNEE LAKESHO 0600    4     300/  7/  9 1020.2S
SHEBOYGAN LAKESH 0700    7     310/ 10/ 13 1023.6R
PORT WASHINGTON  0600    8     310/  3/  5 1023.0R
MILWAUKEE LAKESH 0610   10     320/  8/ 11   N/A
KENOSHA   LAKESH 0700   10     320/  9/ 14 1021.7R
$$

TC  - TEMPERATURE IN CELSIUS
VSB - VISIBILITY IN STATUTE MILES
WCI - WIND CHILL INDEX
HX  - HEAT INDEX




USA.gov is the U.S. government's official web portal to all federal, state and local government web resources and services.